Torna al catalogo

COSMOS 1275 DEB

AttivoPO
NORAD 12753·DEBRIS·🇷🇺 Russia

Lanciato Jun 4, 1981 da Plesetsk Cosmodrome

Loading…

Prossimi Passaggi (prossime 24 ore)

TLE

AggiornatoSource: Space-Track

Epoca: Sep 14, 2026, 21:26 UTC

1 12753U 81053CW  26257.89352013  .00000568  00000-0  53264-3 0  9990
2 12753  82.8029  53.6239 0093375 140.6494  12.9722 13.78029861253426

Traccia COSMOS 1275 DEB in tempo reale con AllMySat

Download on the App Store